Skip Page Navigation
NASA JPL Caltech
NASA Logo - Jet Propulsion Laboratory + View the NASA Portal
+ Near-Earth Object (NEO) Program
Search JPL
JPL Home Earth Solar System Stars & Galaxies Technology
JPL Solar System Dynamics
BODIES ORBITS EPHEMERIDES TOOLS PHYSICAL DATA DISCOVERY FAQ SITE MAP
JPL Small-Body Database Browser
Search: [ help ]  
33477 (1999 FR59)
Classification: Main-belt Asteroid          SPK-ID: 2033477
Ephemeris | Orbit Diagram | Orbital Elements | Physical Parameters | Discovery Circumstances | Close-Approach Data ]

[ show orbit diagram ]
Orbital Elements at Epoch 2457000.5 (2014-Dec-09.0) TDB
Reference: JPL 9 (heliocentric ecliptic J2000)
 Element Value Uncertainty (1-sigma)   Units 
e .08658336782537485 5.1624e-08  
a 2.327496992651073 1.7945e-08 AU
q 2.125974464423911 1.2127e-07 AU
i 6.614445915277782 7.3541e-06 deg
node 177.6638780157691 4.6595e-05 deg
peri 82.97277300838003 6.3644e-05 deg
M 84.99377582293025 4.1746e-05 deg
tp 2456694.291852621593
(2014-Feb-05.79185262)
0.00015042 JED
period 1296.976537268823
3.55
1.4999e-05
4.107e-08
d
yr
n .2775686295436685 3.2101e-09 deg/d
Q 2.529019520878235 1.9499e-08 AU
  Orbit Determination Parameters
   # obs. used (total)      676  
   data-arc span      8179 days (22.39 yr)  
   first obs. used      1992-04-05  
   last obs. used      2014-08-27  
   planetary ephem.      DE431  
   SB-pert. ephem.      SB431-BIG16  
   condition code      0  
   fit RMS      .56481  
   data source      ORB  
   producer      Otto Matic  
   solution date      2014-Sep-12 14:30:59  

Additional Information
 Earth MOID = 1.12477 AU 
 T_jup = 3.559 
[ show covariance matrix ]

Ephemeris | Orbit Diagram | Orbital Elements | Physical Parameters | Discovery Circumstances | Close-Approach Data ]

Physical Parameter Table
Parameter Symbol Value Units Sigma Reference Notes
absolute magnitude H 15.0 mag n/a MPO263626  

33477 (1999 FR59)          Discovered 1999-Mar-27 by Beijing Schmidt CCD Asteroid Program at Xinglong (327)
Reference: 20020128/Numbers.arcLast Updated: 2004-04-19

[ show close-approach data ]
Alternate Designations
 1999 FR59 = 1992 GE6 = 2000 PT9 
Ephemeris | Orbit Diagram | Orbital Elements | Physical Parameters | Discovery Circumstances | Close-Approach Data ]
ABOUT SSD CREDITS/AWARDS PRIVACY/COPYRIGHT GLOSSARY LINKS
FirstGov 2014-Sep-22 22:19 UT
(server date/time)  
NASA Home Page
Site Manager:   Donald K. Yeomans
Webmaster  Alan B. Chamberlin